EW9983 Weather Reports


time (UTC)temp
C
wind
direction
speed
KPH
gust
KPH
rain 1hr
cm
rain 24hr
cm
rain mn
cm
humidity
%
barometer
mb
20260507130013 12 82 3.2 8.0 0.00 0.00 0.00 89 1013.5
20260507124512 13 80 3.2 8.0 0.00 0.00 0.00 88 1013.3
20260507123013 13 80 3.2 8.0 0.00 0.00 0.00 88 1013.3
20260507121509 13 74 3.2 8.0 0.00 0.00 0.00 88 1013.3
20260507120007 13 74 4.8 8.0 0.00 0.00 0.00 88 1013.3
20260507114509 13 46 3.2 8.0 0.00 0.00 0.00 88 1013.2
20260507113012 13 36 3.2 4.8 0.00 0.00 0.00 87 1013.3
20260507111503 13 37 1.6 3.2 0.00 0.00 0.00 87 1013.4
20260507110001 13 36 3.2 6.4 0.00 0.00 0.00 87 1013.3
20260507104559 13 36 3.2 8.0 0.00 0.00 0.00 87 1013.4
20260507103058 13 311 3.2 6.4 0.00 0.00 0.00 87 1013.6
20260507101603 14 307 3.2 6.4 0.00 0.00 0.00 87 1013.6
20260507100057 14 306 1.6 4.8 0.00 0.00 0.00 87 1013.6
20260507094552 14 306 1.6 4.8 0.00 0.00 0.00 86 1013.7
20260507093050 14 298 0.0 3.2 0.00 0.00 0.00 86 1013.8
20260507091549 14 298 0.0 4.8 0.00 0.00 0.00 86 1014.0
20260507090048 15 298 0.0 0.0 0.00 0.00 0.00 85 1014.0
20260507084554 15 298 0.0 0.0 0.00 0.00 0.00 85 1014.3
20260507083041 15 298 0.0 0.0 0.00 0.00 0.00 85 1014.4
20260507081543 15 298 0.0 0.0 0.00 0.00 0.00 85 1014.5
20260507080041 16 298 0.0 0.0 0.00 0.00 0.00 85 1014.6
20260507074536 16 298 0.0 3.2 0.00 0.00 0.00 85 1014.6
20260507073034 16 298 0.0 0.0 0.00 0.00 0.00 85 1014.7
20260507071532 16 298 0.0 4.8 0.00 0.00 0.00 84 1014.5
20260507070032 16 291 1.6 4.8 0.00 0.00 0.00 84 1014.7
20260507064528 16 290 0.0 4.8 0.00 0.00 0.00 84 1014.8
20260507063028 16 290 3.2 6.4 0.00 0.00 0.00 84 1014.9
20260507061527 16 292 3.2 6.4 0.00 0.00 0.00 83 1014.8
20260507060026 17 294 4.8 6.4 0.00 0.00 0.00 82 1014.8
20260507054534 17 303 1.6 8.0 0.00 0.00 0.00 80 1014.8
20260507053024 17 306 1.6 4.8 0.00 0.00 0.00 81 1014.9
20260507051525 17 306 3.2 6.4 0.00 0.00 0.00 81 1014.9
20260507050028 17 309 3.2 6.4 0.00 0.00 0.00 79 1014.9
20260507044523 17 309 1.6 6.4 0.00 0.00 0.00 76 1014.8
20260507043024 18 313 0.0 3.2 0.00 0.00 0.00 75 1014.7
20260507041522 18 313 1.6 6.4 0.00 0.00 0.00 74 1014.8
20260507040021 17 313 1.6 8.0 0.00 0.00 0.00 79 1014.6
20260507034522 17 298 3.2 12.9 0.00 0.00 0.00 81 1014.4
20260507033024 17 288 4.8 9.7 0.00 0.00 0.00 81 1014.2
20260507031520 17 296 8.0 14.5 0.00 0.00 0.00 81 1014.1
20260507030020 17 298 8.0 14.5 0.00 0.00 0.00 80 1014.0
20260507024519 17 300 8.0 16.1 0.00 0.00 0.00 80 1013.9
20260507023118 18 317 9.7 17.7 0.00 0.00 0.00 77 1013.8
20260507021517 18 306 11.3 19.3 0.00 0.00 0.00 74 1013.7
20260507020018 19 305 9.7 17.7 0.00 0.00 0.00 69 1013.7
20260507014526 20 286 11.3 17.7 0.00 0.00 0.00 69 1013.5
20260507013037 20 275 9.7 19.3 0.00 0.00 0.00 69 1013.5
20260507011517 20 304 11.3 19.3 0.00 0.00 0.00 67 1013.6
20260507010023 20 319 9.7 17.7 0.00 0.00 0.00 67 1013.5
20260507004512 21 317 11.3 19.3 0.00 0.00 0.00 64 1013.5
20260507003011 21 261 11.3 20.9 0.00 0.00 0.00 66 1013.4
20260507001611 20 271 14.5 20.9 0.00 0.00 0.00 66 1013.3
20260507000008 20 331 11.3 20.9 0.00 0.00 0.00 67 1013.3
20260506234506 21 316 11.3 19.3 0.00 0.00 0.00 66 1013.3
20260506233007 20 285 14.5 20.9 0.00 0.00 0.00 65 1013.4
20260506231502 21 249 12.9 25.7 0.00 0.00 0.00 62 1013.4
20260506230059 20 280 12.9 24.1 0.00 0.00 0.00 65 1013.4
20260506224559 21 292 19.3 29.0 0.00 0.00 0.00 65 1013.4
20260506223055 20 264 16.1 25.7 0.00 0.00 0.00 66 1013.7
20260506221553 20 275 12.9 27.4 0.00 0.00 0.00 67 1013.7
20260506220051 20 275 19.3 25.7 0.00 0.00 0.00 66 1013.9
20260506214553 20 283 16.1 24.1 0.00 0.00 0.00 66 1014.0
20260506213108 20 252 16.1 25.7 0.00 0.00 0.00 67 1014.1
20260506211548 20 298 17.7 24.1 0.00 0.00 0.00 66 1014.2
20260506210045 19 285 16.1 25.7 0.00 0.00 0.00 68 1014.3
20260506204543 19 247 12.9 25.7 0.00 0.00 0.00 68 1014.4
20260506203042 20 259 14.5 25.7 0.00 0.00 0.00 66 1014.5
20260506201542 20 293 14.5 27.4 0.00 0.00 0.00 66 1014.5
20260506200039 20 244 17.7 24.1 0.00 0.00 0.00 66 1014.5
20260506194539 19 230 14.5 27.4 0.00 0.00 0.00 67 1014.7
20260506193039 19 254 19.3 27.4 0.00 0.00 0.00 66 1014.9
20260506191540 20 257 16.1 27.4 0.00 0.00 0.00 65 1015.0
20260506190036 19 299 12.9 22.5 0.00 0.00 0.00 66 1015.0
20260506184546 19 275 14.5 22.5 0.00 0.00 0.00 67 1015.1
20260506183050 19 243 14.5 22.5 0.00 0.00 0.00 67 1015.2
20260506181555 19 257 12.9 24.1 0.00 0.00 0.00 67 1015.3
20260506180035 19 271 12.9 25.7 0.00 0.00 0.00 67 1015.6
20260506174530 18 246 11.3 22.5 0.00 0.03 0.00 66 1015.6
20260506173031 18 277 11.3 19.3 0.00 0.03 0.00 65 1015.6
20260506171529 18 284 9.7 17.7 0.00 0.03 0.00 64 1015.7
20260506170027 18 291 6.4 16.1 0.00 0.03 0.00 65 1015.6
20260506164534 18 323 6.4 14.5 0.00 0.03 0.00 66 1015.6
20260506163025 17 297 3.2 9.7 0.00 0.03 0.00 66 1015.7
20260506161518 17 285 0.0 6.4 0.00 0.03 0.00 69 1015.7
20260506160017 16 284 1.6 6.4 0.00 0.03 0.00 70 1015.7
20260506154513 16 88 1.6 6.4 0.00 0.03 0.00 71 1015.7
20260506153018 15 92 3.2 6.4 0.00 0.03 0.00 75 1015.8
20260506151507 15 75 4.8 9.7 0.00 0.03 0.00 78 1015.8
20260506150006 13 71 1.6 8.0 0.00 0.03 0.00 81 1015.8
20260506144513 13 68 6.4 9.7 0.00 0.03 0.00 82 1015.8
20260506143004 12 55 4.8 9.7 0.00 0.03 0.00 83 1015.8
20260506141503 12 77 8.0 12.9 0.00 0.03 0.00 84 1015.8
20260506140005 12 63 8.0 12.9 0.00 0.03 0.00 85 1015.7
20260506134559 12 69 6.4 12.9 0.00 0.36 0.00 85 1015.6
20260506133058 12 82 6.4 12.9 0.00 0.36 0.00 85 1015.5
20260506131556 12 75 3.2 8.0 0.00 0.36 0.00 85 1015.3